Thursday, December 18, 2014
21:39 UTC
  |  Log In   |  Register Free
Airport Search:

Firelands Community Hospital Nr 2 Airport
(OI87)

Firelands Community Hospital Nr 2 Airport Diagram
No Airport Diagram Available

FAA data valid effective November 13, 2014 - January 08, 2015 (unless otherwise noted).

 
 
 
 
 
 
 
 
 
 
 
 
 
 

Current Aviation Weather for Firelands Community Hospital Nr 2 Airport (OI87)

METAR data is unavailable for OI87. The nearest METAR location is at KPCW (8.3 nm NW from OI87).

The most recent METAR observation for KPCW was updated at: 2116
METAR Summary (Translated METAR)
KPCW
182112Z AUTO 25008KT 10SM FEW015 OVC026 01/M03 A3017 RMK AO2 $
(8.3 nm NW from OI87)
KLPR
182053Z AUTO 26009KT 10SM OVC017 M02/M04 A3018 RMK AO2 SLP228 T10171044 55002 TSNO
(24.8 nm SE from OI87)
TAF
No TAF information found within 50 nm of KLPR
  Airport Weather Conditions for OI87

Current weather conditions are
not available for OI87


The nearest NOAA weather station
is at PCW, (8.3 nm NW from OI87)
  
 Current Weather at PCW
34° F
Overcast
West winds at 8.1 mph
PCW NOAA Radar

Pressure: 30.16 in
Humidity: 75%
Wind: West at 8.1 MPH (7 KT)
Dew Point: 26.6°F
Visibility: 10.00 mi


Airport Weather Forecast for OI87

Translated METAR and TAF for KLPR
Translated METAR for KLPR (2140 UTC 18 December 2014)
found at http://aviationweather.gov/adds/metars/
 
METAR text: KLPR 182053Z AUTO 26009KT 10SM OVC017 M02/M04 A3018 RMK AO2 SLP228 T10171044 55002 TSNO
Conditions at: KLPR (LORAIN/ELYRIA , OH, US) observed 2053 UTC 18 December 2014
Temperature: -1.7°C (29°F)
Dewpoint: -4.4°C (24°F) [RH = 82%]
Pressure (altimeter): 30.18 inches Hg (1022.1 mb)
[Sea-level pressure: 1022.8 mb]
Winds: from the W (260 degrees) at 10 MPH (9 knots; 4.7 m/s)
Visibility: 10 or more miles (16+ km)
Ceiling: 1700 feet AGL
Clouds: overcast cloud deck at 1700 feet AGL
Weather: automated observation with no human augmentation;
there may or may not be significant weather present at this time
Translated TAF for KLPR

There is no translated TAF available for this airport

Find All Airport Services Find A Hotel Find A Rental Car Find A Golf Course Find A Restaurant $100 Hamburger



FBO's on the Field
FBO Company Facility Photos Services Transportation Aviation Fuel Prices: Prices include tax
Catering Weather Repair Courtesy Rental Type 100LL JetA JetA+ MOGAS 8087
 
Add another FBO Facility Photos Catering Weather Repair Courtesy Rental Type 100LL JetA JetA+ MOGAS 8087
Services Transportation Aviation Fuel Prices: Prices include tax
There are no FBO's currently reporting fuel at OI87. List your FBO now


model-print
model-print
model-print
model-print